timestamp,surface_pressure_avg,surface_temp_avg,battery_voltage,lat,long
2022-10-27 00:09:00+00:00,354.1612,13.6,12.33,47.84626,-54.09684
2022-10-27 00:19:00+00:00,356.2297,13.6,12.33,47.84626,-54.09684
2022-10-27 00:29:00+00:00,360.2212,13.6,12.33,47.84626,-54.09684
2022-10-27 00:39:00+00:00,354.3462,13.6,12.33,47.84626,-54.09684
2022-10-27 00:49:00+00:00,351.0146,13.6,12.33,47.84626,-54.09684
2022-10-27 00:59:00+00:00,353.18300000000005,13.6,12.33,47.84626,-54.09684
2022-10-27 01:09:00+00:00,350.0312,13.6,12.33,47.84626,-54.09684
2022-10-27 01:19:00+00:00,342.1713,13.6,12.33,47.84626,-54.09684
2022-10-27 01:29:00+00:00,339.7545,13.6,12.33,47.84626,-54.09684
2022-10-27 01:39:00+00:00,340.478,13.6,12.33,47.84626,-54.09684
2022-10-27 01:49:00+00:00,331.1463,13.6,12.33,47.84626,-54.09684
2022-10-27 01:59:00+00:00,327.253,13.59,12.33,47.84626,-54.09684
2022-10-27 02:09:00+00:00,328.0447,13.6,12.33,47.84626,-54.09684
2022-10-27 02:19:00+00:00,324.1913,13.6,12.33,47.84626,-54.09684
2022-10-27 02:29:00+00:00,313.2163,13.6,12.33,47.84626,-54.09684
2022-10-27 02:39:00+00:00,308.1947,13.6,12.33,47.84626,-54.09684
2022-10-27 02:49:00+00:00,306.1047,13.6,12.33,47.84626,-54.09684
2022-10-27 02:59:00+00:00,298.4114,13.6,12.33,47.84626,-54.09684
2022-10-27 03:09:00+00:00,283.3747,13.6,12.33,47.84626,-54.09684
2022-10-27 03:19:00+00:00,276.9947,13.58,12.33,47.84626,-54.09684
2022-10-27 03:29:00+00:00,272.5314,13.5,12.33,47.84626,-54.09684
2022-10-27 03:39:00+00:00,262.7047,13.5,12.33,47.84626,-54.09684
2022-10-27 03:49:00+00:00,251.2248,13.5,12.33,47.84626,-54.09684
2022-10-27 03:59:00+00:00,245.6681,13.5,12.33,47.84626,-54.09684
2022-10-27 04:09:00+00:00,236.6764,13.5,12.33,47.84626,-54.09684
2022-10-27 04:19:01+00:00,224.5847,13.5,12.33,47.84626,-54.09684
2022-10-27 04:29:01+00:00,217.2164,13.5,12.33,47.84626,-54.09684
2022-10-27 04:39:01+00:00,210.7065,13.5,12.33,47.84626,-54.09684
2022-10-27 04:49:01+00:00,199.9348,13.5,12.33,47.84626,-54.09684
2022-10-27 04:59:01+00:00,192.5414,13.5,12.33,47.84626,-54.09684
2022-10-27 05:09:01+00:00,189.9331,13.5,12.33,47.84626,-54.09684
2022-10-27 05:19:00+00:00,184.6981,13.5,12.33,47.84626,-54.09684
2022-10-27 05:29:00+00:00,180.3849,13.5,12.33,47.84626,-54.09684
2022-10-27 05:39:00+00:00,182.3682,13.5,12.33,47.84626,-54.09684
2022-10-27 05:49:00+00:00,182.2648,13.5,12.33,47.84626,-54.09684
2022-10-27 05:59:00+00:00,176.4298,13.49,12.33,47.84626,-54.09684
2022-10-27 06:09:00+00:00,175.3965,13.5,12.33,47.84626,-54.09684
2022-10-27 06:19:00+00:00,177.8015,13.5,12.33,47.84626,-54.09684
2022-10-27 06:29:00+00:00,173.6815,13.5,12.33,47.84626,-54.09684
2022-10-27 06:39:00+00:00,170.8548,13.5,12.33,47.84626,-54.09684
2022-10-27 06:49:00+00:00,174.4598,13.5,12.33,47.84626,-54.09684
2022-10-27 06:59:00+00:00,179.4865,13.5,12.33,47.84626,-54.09684
2022-10-27 07:09:00+00:00,182.0031,13.5,12.33,47.84626,-54.09684
2022-10-27 07:19:00+00:00,184.4948,13.5,12.33,47.84626,-54.09684
2022-10-27 07:29:00+00:00,191.9565,13.5,12.33,47.84626,-54.09684
2022-10-27 07:39:00+00:00,198.8798,13.5,12.33,47.84626,-54.09684
2022-10-27 07:49:00+00:00,203.5565,13.5,12.33,47.84626,-54.09684
2022-10-27 07:59:00+00:00,210.6048,13.5,12.33,47.84626,-54.09684
2022-10-27 08:09:00+00:00,217.5847,13.5,12.33,47.84626,-54.09684
2022-10-27 08:19:00+00:00,221.3831,13.5,12.33,47.84626,-54.09684
2022-10-27 08:29:00+00:00,227.6864,13.5,12.33,47.84626,-54.09684
2022-10-27 08:39:00+00:00,237.6431,13.5,12.33,47.84626,-54.09684
2022-10-27 08:49:00+00:00,243.5215,13.5,12.33,47.84626,-54.09684
2022-10-27 08:59:00+00:00,247.9131,13.51,12.33,47.84626,-54.09684
2022-10-27 09:09:00+00:00,254.7931,13.5,12.33,47.84626,-54.09684
2022-10-27 09:19:01+00:00,266.0814,13.5,12.25,47.84626,-54.09684
2022-10-27 09:29:01+00:00,272.8897,13.53,12.25,47.84626,-54.09684
2022-10-27 09:39:01+00:00,277.2214,13.55,12.25,47.84626,-54.09684
2022-10-27 09:49:01+00:00,285.5714,13.54,12.25,47.84626,-54.09684
2022-10-27 09:59:01+00:00,293.7881,13.55,12.25,47.84626,-54.09684
2022-10-27 10:09:01+00:00,299.1346,13.58,12.25,47.84626,-54.09684
2022-10-27 10:19:00+00:00,304.4214,13.58,12.33,47.84626,-54.09684
2022-10-27 10:29:00+00:00,312.8196,13.58,12.33,47.84626,-54.09684
2022-10-27 10:39:00+00:00,323.1047,13.58,12.33,47.84626,-54.09684
2022-10-27 10:49:00+00:00,329.2029,13.59,12.33,47.84626,-54.09684
2022-10-27 10:59:00+00:00,336.403,13.59,12.33,47.84626,-54.09684
2022-10-27 11:09:00+00:00,343.7963,13.59,12.33,47.84626,-54.09684
2022-10-27 11:19:00+00:00,353.8497,13.58,12.33,47.84626,-54.09684
2022-10-27 11:29:00+00:00,361.7396,13.59,12.33,47.84626,-54.09684
2022-10-27 11:39:00+00:00,367.8195,13.6,12.33,47.84626,-54.09684
2022-10-27 11:49:00+00:00,374.6746,13.6,12.33,47.84626,-54.09684
2022-10-27 11:59:00+00:00,379.9196,13.6,12.33,47.84626,-54.09684
2022-10-27 12:09:00+00:00,382.5629,13.6,12.33,47.84626,-54.09684
2022-10-27 12:19:00+00:00,385.6296,13.6,12.33,47.84626,-54.09684
2022-10-27 12:29:00+00:00,389.4312,13.6,12.33,47.84626,-54.09684
2022-10-27 12:39:00+00:00,393.3146,13.6,12.33,47.84626,-54.09684
2022-10-27 12:49:00+00:00,392.1445,13.6,12.33,47.84626,-54.09684
2022-10-27 12:59:00+00:00,390.9146,13.6,12.33,47.84626,-54.09684
2022-10-27 13:09:00+00:00,390.2546,13.6,12.33,47.84626,-54.09684
2022-10-27 13:19:00+00:00,389.2113,13.6,12.33,47.84626,-54.09684
2022-10-27 13:29:00+00:00,388.4612,13.6,12.33,47.84626,-54.09684
2022-10-27 13:39:00+00:00,386.2479,13.6,12.33,47.84626,-54.09684
2022-10-27 13:49:00+00:00,382.5846,13.6,12.33,47.84626,-54.09684
2022-10-27 13:59:00+00:00,378.8513,13.6,12.33,47.84626,-54.09684
2022-10-27 14:09:00+00:00,372.2162,13.6,12.33,47.84626,-54.09684
2022-10-27 14:19:00+00:00,365.4346,13.6,12.41,47.84626,-54.09684
2022-10-27 14:29:00+00:00,362.3846,13.6,12.41,47.84626,-54.09684
2022-10-27 14:39:00+00:00,355.5379,13.6,12.41,47.84626,-54.09684
2022-10-27 14:49:00+00:00,344.94800000000015,13.6,12.41,47.84626,-54.09684
2022-10-27 14:59:00+00:00,338.5297,13.6,12.41,47.84626,-54.09684
2022-10-27 15:09:00+00:00,334.723,13.6,12.41,47.84626,-54.09684
2022-10-27 15:19:00+00:00,325.8763,13.6,12.41,47.84626,-54.09684
2022-10-27 15:29:00+00:00,314.4647,13.6,12.41,47.84626,-54.09684
2022-10-27 15:39:00+00:00,308.5497,13.6,12.41,47.84626,-54.09684
2022-10-27 15:49:00+00:00,302.0114,13.6,12.41,47.84626,-54.09684
2022-10-27 15:59:00+00:00,288.9847,13.6,12.41,47.84626,-54.09684
2022-10-27 16:09:00+00:00,280.1314,13.6,12.41,47.84626,-54.09684
2022-10-27 16:19:01+00:00,274.4897,13.6,12.33,47.84626,-54.09684
2022-10-27 16:29:01+00:00,265.6497,13.6,12.33,47.84626,-54.09684
2022-10-27 16:39:01+00:00,249.6564,13.6,12.33,47.84626,-54.09684
2022-10-27 16:49:01+00:00,242.8547,13.62,12.33,47.84626,-54.09684
2022-10-27 16:59:01+00:00,237.9748,13.63,12.33,47.84626,-54.09684
2022-10-27 17:09:01+00:00,225.7365,13.65,12.33,47.84626,-54.09684
2022-10-27 17:19:00+00:00,212.7414,13.68,12.33,47.84626,-54.09684
2022-10-27 17:29:00+00:00,209.7248,13.69,12.33,47.84626,-54.09684
2022-10-27 17:39:00+00:00,206.4898,13.69,12.33,47.84626,-54.09684
2022-10-27 17:49:00+00:00,197.5398,13.68,12.33,47.84626,-54.09684
2022-10-27 17:59:00+00:00,189.0547,13.68,12.33,47.84626,-54.09684
2022-10-27 18:09:00+00:00,184.8782,13.69,12.33,47.84626,-54.09684
2022-10-27 18:19:00+00:00,182.8148,13.68,12.33,47.84626,-54.09684
2022-10-27 18:29:00+00:00,180.4881,13.68,12.33,47.84626,-54.09684
2022-10-27 18:39:00+00:00,178.0981,13.68,12.33,47.84626,-54.09684
2022-10-27 18:49:00+00:00,179.3115,13.68,12.33,47.84626,-54.09684
2022-10-27 18:59:00+00:00,181.6215,13.67,12.33,47.84626,-54.09684
2022-10-27 19:09:00+00:00,181.0531,13.68,12.33,47.84626,-54.09684
2022-10-27 19:19:00+00:00,182.6748,13.68,12.33,47.84626,-54.09684
2022-10-27 19:29:00+00:00,188.6998,13.67,12.33,47.84626,-54.09684
2022-10-27 19:39:00+00:00,194.518,13.67,12.33,47.84626,-54.09684
2022-10-27 19:49:00+00:00,197.3331,13.66,12.33,47.84626,-54.09684
2022-10-27 19:59:00+00:00,198.9248,13.67,12.33,47.84626,-54.09684
2022-10-27 20:09:00+00:00,206.0981,13.68,12.33,47.84626,-54.09684
2022-10-27 20:19:00+00:00,212.9864,13.67,12.25,47.84626,-54.09684
2022-10-27 20:29:00+00:00,213.4398,13.68,12.25,47.84626,-54.09684
2022-10-27 20:39:00+00:00,215.7931,13.69,12.25,47.84626,-54.09684
2022-10-27 20:49:00+00:00,222.6898,13.69,12.25,47.84626,-54.09684
2022-10-27 20:59:00+00:00,228.2631,13.68,12.25,47.84626,-54.09684
2022-10-27 21:09:00+00:00,231.4681,13.69,12.25,47.84626,-54.09684
2022-10-27 21:19:01+00:00,237.6248,13.69,12.25,47.84626,-54.09684
2022-10-27 21:29:01+00:00,245.5781,13.7,12.25,47.84626,-54.09684
2022-10-27 21:39:01+00:00,249.9397,13.7,12.25,47.84626,-54.09684
2022-10-27 21:49:01+00:00,253.5281,13.7,12.25,47.84626,-54.09684
2022-10-27 21:59:01+00:00,259.4664,13.7,12.25,47.84626,-54.09684
2022-10-27 22:09:01+00:00,263.1948,13.7,12.25,47.84626,-54.09684
2022-10-27 22:19:00+00:00,265.8998,13.7,12.25,47.84626,-54.09684
2022-10-27 22:29:00+00:00,271.9598,13.7,12.25,47.84626,-54.09684
2022-10-27 22:39:00+00:00,277.2881,13.7,12.25,47.84626,-54.09684
2022-10-27 22:49:00+00:00,282.2081,13.7,12.25,47.84626,-54.09684
2022-10-27 22:59:00+00:00,290.6981,13.7,12.25,47.84626,-54.09684
2022-10-27 23:09:00+00:00,302.6163,13.7,12.25,47.84626,-54.09684
2022-10-27 23:19:01+00:00,309.2863,13.7,12.25,47.84626,-54.09684
2022-10-27 23:29:01+00:00,315.7096,13.7,12.25,47.84626,-54.09684
2022-10-27 23:39:01+00:00,325.3147,13.7,12.25,47.84626,-54.09684
2022-10-27 23:49:01+00:00,334.1729,13.7,12.25,47.84626,-54.09684
2022-10-27 23:59:01+00:00,337.9147,13.7,12.25,47.84626,-54.09684
